User: anonymous   Login
Location: Litvinovka
(48.6667°N, 34.3500°E)
Time: 19:01:37
(UTC+00:00)
Language:

SJ-11-01 - Orbit

View from above orbital plane
View from above orbital plane
View from above satellite
View from above satellite

Ground track
Ground track

The orbit data is extracted from the following two-line orbital elements,

1 36088U 09061A   21163.51482705  .00000015  00000-0  12239-4 0  9993
2 36088  97.9543 188.8589 0012542  31.8689 328.3273 14.60218417617152
Epoch (UTC): 12 June 2021 12:21:21
Eccentricity: 0.0012542
inclination: 97.9543°
perigee height: 683 km
apogee height: 701 km
right ascension of ascending node: 188.8589°
argument of perigee: 31.8689°
revolutions per day: 14.60218417
mean anomaly at epoch: 328.3273°
orbit number at epoch: 61715

The dashed part of the orbit path shows where the satellite is in the earth's shadow,  

DLR